Weather History for Mount Pleasant, MI

Change the Weather History Date:

Tuesday, October 16, 2012

  Actual Average (KAMN) Record (KAMN)
Temperature  
Mean Temperature 45 °F -  
Max Temperature 58 °F 59 °F 82 °F (1989)
Min Temperature 32 °F 39 °F 25 °F (1991)
Degree Days  
Heating Degree Days 20    
Moisture  
Dew Point 38 °F    
Average Humidity 75    
Maximum Humidity 99    
Minimum Humidity 52    
Precipitation  
Precipitation 0.00 in - - ()
Sea Level Pressure  
Sea Level Pressure 29.85 in    
Wind  
Wind Speed 3 mph (SSE)    
Max Wind Speed 12 mph    
Max Gust Speed 16 mph    
Visibility 9 miles    
Events Rain    
Averages and records for this station are not official NWS values.
T = Trace of Precipitation, MM = Missing Value Source: NWS Daily Summary

Daily Weather History Graph

Daily Weather History Graph

Search for Another Location

Airport:

Trip Planner

Search our weather history database for the weather conditions in past years. The results will help you decide how hot, cold, wet, or windy it might be!

Date:

Astronomy

Oct. 16, 2012 Rise Set
Actual Time 7:54 AM EDT 6:53 PM EDT
Civil Twilight 7:26 AM EDT 7:22 PM EDT
Nautical Twilight 6:52 AM EDT 7:55 PM EDT
Astronomical Twilight 6:19 AM EDT 8:28 PM EDT
Moon 9:20 AM EDT (10/16) 7:32 PM EDT (10/16)
Length of Visible Light 11h 56m
Length of Day
10h 58m
New Moon, 2% of the Moon is Illuminated
Oct 16
New Moon
Oct 21
First Quarter
Oct 29
Full
Nov 6
Last Quarter
Nov 13
New

Hourly Weather History & Observations

Time (EDT) Temp. Windchill Dew Point Humidity Pressure Visibility Wind Dir Wind Speed Gust Speed Precip Events Conditions
12:15 AM 44.6 °F 43.1 °F 37.8 °F 77% 29.94 in 10.0 mi West 3.5 mph - N/A   Overcast
12:35 AM 44.6 °F 43.1 °F 37.9 °F 77% 29.95 in 10.0 mi West 3.5 mph - N/A   Overcast
12:55 AM 44.4 °F 42.9 °F 37.6 °F 77% 29.94 in 10.0 mi West 3.5 mph - N/A   Overcast
1:15 AM 44.6 °F - 37.6 °F 76% 29.94 in 10.0 mi Calm Calm - N/A   Overcast
1:35 AM 44.4 °F 42.9 °F 37.6 °F 77% 29.94 in 10.0 mi West 3.5 mph - N/A   Overcast
1:55 AM 44.1 °F - 37.4 °F 77% 29.94 in 10.0 mi Calm Calm - N/A   Overcast
2:15 AM 43.0 °F - 36.9 °F 79% 29.94 in 10.0 mi Calm Calm - N/A   Mostly Cloudy
2:35 AM 41.9 °F - 36.5 °F 81% 29.94 in 10.0 mi Calm Calm - N/A   Scattered Clouds
2:55 AM 37.9 °F - 35.1 °F 89% 29.94 in 10.0 mi Calm Calm - N/A   Clear
3:15 AM 38.3 °F - 35.8 °F 91% 29.95 in 10.0 mi Calm Calm - N/A   Clear
3:35 AM 37.0 °F - 35.1 °F 93% 29.95 in 10.0 mi Calm Calm - N/A   Clear
3:55 AM 36.3 °F - 35.2 °F 96% 29.93 in 10.0 mi Calm Calm - N/A   Clear
4:15 AM 35.1 °F - 34.2 °F 97% 29.92 in 1.5 mi Calm Calm - N/A   Mist
4:35 AM 36.0 °F 32.1 °F 34.9 °F 96% 29.94 in 10.0 mi West 4.6 mph - N/A   Clear
4:55 AM 36.0 °F 33.3 °F 34.7 °F 95% 29.94 in 10.0 mi West 3.5 mph - N/A   Clear
5:15 AM 36.1 °F 32.3 °F 34.7 °F 94% 29.95 in 10.0 mi West 4.6 mph - N/A   Clear
5:35 AM 35.6 °F - 34.2 °F 94% 29.95 in 10.0 mi Calm Calm - N/A   Clear
5:56 AM 34.3 °F - 33.1 °F 95% 29.95 in 10.0 mi Calm Calm - N/A   Clear
6:15 AM 34.3 °F - 32.7 °F 94% 29.95 in 7.0 mi Calm Calm - N/A   Clear
6:35 AM 33.4 °F - 32.4 °F 96% 29.95 in 3.0 mi Calm Calm - N/A   Clear
6:56 AM 33.1 °F - 32.5 °F 98% 29.95 in 7.0 mi Calm Calm - N/A   Clear
7:15 AM 32.0 °F - 31.8 °F 99% 29.94 in 1.2 mi Calm Calm - N/A   Mist
7:35 AM 32.7 °F - 32.2 °F 98% 29.94 in 1.0 mi Calm Calm - N/A   Mist
8:15 AM 32.2 °F - 32.0 °F 99% 29.94 in 1.8 mi Calm Calm - N/A   Mist
8:35 AM 34.0 °F - 33.4 °F 98% 29.95 in 10.0 mi Calm Calm - N/A   Clear
8:56 AM 36.1 °F - 35.2 °F 97% 29.95 in 10.0 mi Calm Calm - N/A   Clear
9:15 AM 38.5 °F - 36.7 °F 93% 29.95 in 10.0 mi Calm Calm - N/A   Clear
9:35 AM 40.3 °F - 37.0 °F 88% 29.95 in 10.0 mi Calm Calm - N/A   Clear
9:55 AM 42.1 °F - 37.6 °F 84% 29.95 in 10.0 mi Calm Calm - N/A   Clear
10:15 AM 43.5 °F 41.9 °F 37.9 °F 81% 29.93 in 10.0 mi SSE 3.5 mph - N/A   Clear
10:35 AM 44.8 °F 41.0 °F 37.8 °F 76% 29.93 in 10.0 mi South 6.9 mph - N/A   Clear
10:55 AM 45.0 °F 40.6 °F 37.6 °F 75% 29.93 in 10.0 mi South 8.1 mph - N/A   Clear
11:15 AM 46.4 °F 42.4 °F 37.9 °F 72% 29.92 in 10.0 mi South 8.1 mph - N/A   Scattered Clouds
11:35 AM 47.1 °F - 37.6 °F 69% 29.92 in 10.0 mi South 6.9 mph - N/A   Scattered Clouds
11:55 AM 48.0 °F - 37.8 °F 68% 29.91 in 10.0 mi South 6.9 mph - N/A   Clear
12:15 PM 49.8 °F - 38.7 °F 65% 29.90 in 10.0 mi South 8.1 mph - N/A   Scattered Clouds
12:35 PM 49.5 °F - 38.7 °F 66% 29.89 in 10.0 mi South 5.8 mph - N/A   Scattered Clouds
12:55 PM 50.5 °F - 39.2 °F 65% 29.88 in 10.0 mi SSE 9.2 mph - N/A   Clear
1:15 PM 51.3 °F - 39.4 °F 64% 29.87 in 10.0 mi South 6.9 mph - N/A   Clear
1:35 PM 52.5 °F - 39.7 °F 62% 29.85 in 10.0 mi SSE 6.9 mph - N/A   Clear
1:55 PM 53.6 °F - 40.5 °F 61% 29.84 in 10.0 mi SSE 5.8 mph - N/A   Clear
2:15 PM 54.3 °F - 39.4 °F 57% 29.83 in 10.0 mi SSE 10.4 mph - N/A   Clear
2:35 PM 55.0 °F - 39.6 °F 56% 29.83 in 10.0 mi SSE 11.5 mph - N/A   Clear
2:55 PM 55.8 °F - 39.6 °F 55% 29.82 in 10.0 mi South 9.2 mph 16.1 mph N/A   Clear
3:15 PM 56.3 °F - 39.6 °F 53% 29.80 in 10.0 mi SSW 8.1 mph 16.1 mph N/A   Clear
3:35 PM 55.8 °F - 39.6 °F 55% 29.80 in 10.0 mi South 6.9 mph - N/A   Clear
3:55 PM 56.5 °F - 39.9 °F 54% 29.80 in 10.0 mi South 11.5 mph - N/A   Clear
4:15 PM 57.4 °F - 40.3 °F 53% 29.78 in 10.0 mi South 10.4 mph - N/A   Clear
4:35 PM 57.6 °F - 40.3 °F 53% 29.77 in 10.0 mi South 8.1 mph - N/A   Clear
4:55 PM 58.1 °F - 40.5 °F 52% 29.77 in 10.0 mi SE 9.2 mph - N/A   Clear
5:15 PM 57.6 °F - 40.3 °F 53% 29.75 in 10.0 mi SSE 8.1 mph - N/A   Clear
5:35 PM 57.4 °F - 40.6 °F 54% 29.74 in 10.0 mi SSE 5.8 mph - N/A   Clear
5:55 PM 57.2 °F - 40.1 °F 53% 29.73 in 10.0 mi SSE 8.1 mph - N/A   Clear
6:15 PM 55.9 °F - 40.3 °F 56% 29.71 in 10.0 mi SE 8.1 mph - N/A   Clear
6:35 PM 54.7 °F - 40.3 °F 58% 29.71 in 10.0 mi SE 5.8 mph - N/A   Clear
6:55 PM 53.6 °F - 40.3 °F 61% 29.70 in 10.0 mi ESE 5.8 mph - N/A   Clear
7:15 PM 52.5 °F - 40.1 °F 63% 29.71 in 10.0 mi SE 4.6 mph - N/A   Clear
7:35 PM 51.6 °F - 39.9 °F 64% 29.72 in 10.0 mi Calm Calm - N/A   Clear
7:55 PM 50.0 °F - 39.6 °F 67% 29.71 in 10.0 mi East 3.5 mph - N/A   Clear
8:15 PM 47.7 °F - 39.6 °F 73% 29.72 in 10.0 mi Calm Calm - N/A   Clear
8:35 PM 49.1 °F - 39.9 °F 71% 29.73 in 10.0 mi Calm Calm - N/A Rain Light Rain
8:55 PM 47.1 °F - 42.1 °F 83% 29.72 in 10.0 mi Calm Calm - N/A Rain Light Rain
9:15 PM 50.0 °F - 42.3 °F 75% 29.71 in 10.0 mi ESE 3.5 mph - N/A   Mostly Cloudy
9:35 PM 50.9 °F - 41.9 °F 71% 29.70 in 10.0 mi SE 4.6 mph - N/A   Mostly Cloudy
9:55 PM 51.6 °F - 41.5 °F 68% 29.70 in 10.0 mi SSE 8.1 mph - N/A   Scattered Clouds
10:15 PM 51.8 °F - 41.2 °F 67% 29.70 in 10.0 mi SE 5.8 mph - N/A   Scattered Clouds
10:35 PM 50.9 °F - 41.4 °F 70% 29.70 in 10.0 mi SE 4.6 mph - N/A   Mostly Cloudy
10:55 PM 50.4 °F - 41.2 °F 71% 29.69 in 10.0 mi SE 5.8 mph - N/A   Scattered Clouds
11:35 PM 50.2 °F - 41.2 °F 71% 29.69 in 10.0 mi SE 6.9 mph - N/A   Mostly Cloudy
11:55 PM 50.5 °F - 41.2 °F 70% 29.68 in 10.0 mi SSE 9.2 mph - N/A   Overcast